Location: Newark
(44.9000°N, 9.6000°E)
Time: 00:57:04
(UTC+00:00)

ISS - Pass Details

Date: 26 January 2020
Orbit: 415 x 423 km, 51.6° (Epoch: 28 February)

Event Time Altitude Azimuth Distance (km) Brightness Sun altitude
Rises 18:57:36 0° 286° (WNW) 2,380 1.2 -27.7°
Reaches altitude 10° 18:59:57 10° 300° (WNW) 1,513 -0.2 -28.2°
Enters shadow 19:00:48 15° 310° (NW) 1,247 -0.8 -28.3°
